CAPE
234 224 351 567 671 663 598 562 627 851 1651 2123 2539 2642 2344 2289 2654 2543 2241 2097 1921 2223 2034 2001 1922 1866 1785 1756 1703 1665 1671 1934 1920 1632 1575 1144 1210 859 523 502 773 784 1595
282 399 569 705 648 776 803 715 797 967 1413 2169 2292 2227 1981 2193 2355 2319 2188 2064 1943 1992 1874 1845 1832 1805 1827 1615 1483 1423 1450 1648 1653 1462 1391 1342 1351 1026 778 814 955 1312 1470
395 450 678 850 951 1083 1131 1211 1045 1046 1047 1324 1688 1747 2050 2213 2331 2273 2180 2154 2029 1936 1858 1840 1787 1742 1695 1638 1518 1305 1404 1276 1341 1356 1175 1360 800 586 970 762 1461 1461 1341
290 380 315 1171 1064 1242 1356 1453 1491 1305 1148 1380 1647 1819 2101 2294 2215 1941 2053 2119 2044 1945 1763 1690 1712 1712 1772 1697 1583 1434 1240 1229 1193 1122 1642 566 270 951 1278 1179 1268 1212 1469
596 566 772 1196 1328 1437 1475 1645 1534 1492 1433 1547 1562 1890 2188 2253 2096 1761 1942 1988 1917 1750 1645 1630 1579 1558 1481 1504 1486 1555 1416 1212 1110 1241 1088 363 335 834 1279 1306 949 970 1050
888 829 799 1224 1454 1573 1653 1887 1814 1888 1944 1610 1701 2108 2101 2058 1781 1829 1923 1815 1732 1649 1585 1547 1606 1642 1594 1469 1468 1387 1457 1410 841 1677 1380 491 327 1175 1054 1182 1341 1200 1105
1027 1082 1070 1538 1727 1843 2004 2111 2124 2059 1936 1643 1900 1998 1957 2003 1828 1917 1702 1567 1568 1687 1820 1855 1812 1539 1661 1637 1548 1393 1532 1504 1687 2081 1616 1210 347 992 1527 318 703 1084 1372
830 1281 1467 1957 1994 1904 2046 1904 1865 1794 1783 1882 1920 1903 2036 2005 1870 1692 1464 1489 1626 1829 1983 2012 1642 1284 1288 1402 1415 1375 1471 1546 1571 2117 2126 1872 1298 736 1516 820 474 1328 951
875 1012 1302 1576 2046 1889 1890 1738 1734 1812 1926 1890 1854 1934 2055 1912 1812 1508 1538 1633 1766 1878 1838 1785 1640 1300 1256 1369 1452 1168 1312 1605 1885 2169 1681 2069 1737 1128 904 1399 1545 1203 1211
1138 1034 1318 1389 1499 2013 1531 1558 1614 1760 1800 1779 1965 2047 1961 1886 1640 1501 1588 1767 1417 1479 1656 1787 1775 1452 1287 1559 1686 1637 1678 1773 1869 1812 2168 1746 2028 1260 1513 991 1470 1203 1239
1289 1472 1323 1281 1063 1217 1186 1406 2110 2086 1950 2027 2233 2047 1702 1561 1673 2219 1668 1241 1117 2132 1783 1854 1832 1643 1608 1737 1883 2039 2616 1906 1534 2043 1690 1896 2114 1404 1388 1383 902 1222 1011
1221 1326 1246 1394 1140 1242 1112 1993 1684 1501 1466 1408 1330 1995 1377 1520 1702 1587 1470 1631 1873 2055 1916 1882 1752 1885 2331 1885 2091 2989 1850 1596 1397 1872 1939 2157 1757 1862 1515 1803 1098 1291 1039
1429 1253 1498 1399 1317 1142 2092 1280 1487 1441 1388 1368 1712 1809 1499 1624 1979 1711 1923 2672 2314 2467 2235 2094 2018 1958 2109 1851 2128 2034 1627 1795 1426 1695 1834 2304 1784 1924 1857 1943 1653 1276 1679
1111 968 881 1138 1560 1448 1432 1119 1134 1042 1026 1045 1403 1909 1895 1773 1537 2021 2398 2020 2391 2203 1837 2768 2228 2240 2412 2358 2169 2161 2083 1673 1676 1635 2210 2436 2188 2032 2092 2118 2073 1445 1420
1132 984 1000 1242 1738 1721 1895 1275 1070 994 1019 925 1087 1465 1372 1542 2617 2531 2674 1761 1715 1485 2388 1995 2424 2681 1749 2108 1913 2059 1783 2363 1872 1791 1975 2325 2398 2348 2128 2133 2121 2153 1753
1214 1162 1212 1478 1848 1940 2383 2128 1466 1364 1187 1022 1022 1002 1676 1866 2964 1970 1736 1553 2374 1606 2173 2433 2214 2140 1909 2119 2263 1619 2101 1994 1921 1451 1475 2189 2664 2681 2586 2233 2314 2164 2002
1036 1184 1322 1539 1711 2061 2030 2055 1798 1350 1065 1085 988 1426 1572 2202 2194 2183 2297 1891 2004 2897 2486 2192 2551 2873 2452 1986 1824 1589 1238 1228 768 454 485 274 1647 2819 2831 2177 2896 2728 2059
880 1101 1309 1297 1473 1954 2560 2218 1828 1453 1342 1560 1497 1980 2811 2340 2397 2208 1792 1610 2014 2708 2577 2362 2005 2455 574 269 85 18 62 71 34 47 106 217 223 196 2417 2717 2720 2647 2007
1085 1238 1356 1424 1367 1889 2761 2307 2104 2708 1750 2034 2351 1393 2287 2082 2498 2410 1996 2829 2632 2100 1877 2397 1816 1152 266 0 0 0 1 12 61 122 216 449 418 320 216 2384 2273 2358 1477
1080 1278 1595 1521 2189 2845 2468 2862 2220 2546 2358 2295 1606 1882 2580 2349 2031 3055 2395 1780 1867 1488 2203 1421 1137 362 0 20 0 0 1 22 89 175 455 299 657 608 871 1105 1439 1698 2131
1144 1378 1677 2311 3625 2561 1952 1938 2068 1903 2825 2099 2042 2296 2489 2378 2350 2823 2414 2134 1781 1638 1700 1013 413 301 0 113 3 16 6 36 71 154 302 145 313 417 624 980 1657 1550 1366
1321 1751 2573 2939 3899 3209 2480 2844 2257 2227 1429 2033 1936 1953 2719 2209 3052 1989 2434 2158 2393 1467 1308 585 208 1 0 134 0 1 23 96 109 153 138 15 0 22 219 542 1080 1033 1320
1352 1961 3044 3845 4101 3824 3707 3255 2577 2462 2047 1798 903 982 1361 1797 1418 2299 2245 1957 2193 903 741 488 41 9 0 0 58 0 41 136 31 306 279 12 0 1 1 99 2 3 91
1327 1803 3280 4001 4346 4136 4253 3153 3765 2403 1674 990 1202 882 830 1029 1054 2224 1861 1345 1544 1253 916 11 11 8 23 0 1 22 77 170 126 120 161 11 0 0 0 0 0 0 0
1155 1493 2447 4220 4512 4423 4359 3966 3003 3087 1433 1196 1045 2701 1537 2546 1231 992 1162 2080 1498 610 769 63 33 50 0 2 9 11 48 17 46 0 11 87 22 8 0 0 0 0 0
1035 1304 2031 4092 4695 4789 4629 4616 4756 4449 2956 1937 1797 1927 1288 751 1162 1325 1333 1767 2211 683 217 240 150 25 46 107 72 22 2 13 28 31 33 43 42 29 21 0 0 1 0
CIN
-1 0 0 0 0 0 0 -4 0 0 0 0 0 0 0 0 0 0 0 0 0 0 0 0 0 0 0 0 0 0 0 0 0 0 -2 -9 -2 -6 -18 -16 -16 -1 -1
-3 0 -1 0 0 -1 -4 -6 0 0 0 0 0 0 0 0 0 0 0 -4 0 0 0 -1 0 0 0 0 -1 -3 0 0 -1 -13 -1 0 -3 -5 -11 -8 -5 -1 0
0 0 -1 0 -1 0 0 0 -1 0 -3 0 0 0 0 0 0 0 0 0 0 0 -1 0 0 0 -2 -2 -3 -4 -4 -6 -21 -33 -14 -6 -14 -30 -5 -10 -1 0 0
-2 -1 0 0 -2 0 0 0 0 0 -11 0 0 0 0 0 0 0 0 0 0 0 -2 -3 0 0 -1 -1 -4 -4 -9 -10 -23 -37 -12 0 -13 -12 0 -2 0 0 0
0 0 -1 0 -1 0 0 0 0 -1 -1 0 0 0 0 0 0 -2 0 0 0 -3 -13 -9 -2 -3 -5 -8 -4 -2 -7 -12 -29 -27 -9 -2 -9 -12 0 -4 -10 -4 -3
0 0 -12 -2 -1 0 0 0 0 0 0 0 0 0 0 0 0 -1 0 -3 -5 -11 -9 -7 -5 -1 -1 -6 -9 -8 -14 -18 -59 -3 -3 -9 -17 -7 0 0 -1 -3 -3
0 0 0 -1 -2 0 0 0 0 0 0 -4 0 0 0 0 -1 0 -4 -11 -10 -4 0 0 -1 -7 -6 -3 -8 -10 -14 -26 -11 -12 -5 -2 -44 -25 0 -42 -13 -3 0
0 0 0 0 0 0 0 0 0 0 0 0 0 0 0 0 -5 -10 -24 -25 -15 -6 0 0 -2 -19 -24 -17 -17 -21 -24 -36 -16 -1 -5 -1 -28 -40 0 -8 -20 0 0
0 0 0 0 0 0 0 0 0 0 0 0 0 0 0 -5 -13 -26 -22 -21 -15 -6 -5 -4 -9 -24 -29 -30 -31 -52 -45 -45 -22 -5 -1 -1 -23 -17 -14 -1 0 0 0
0 0 0 0 0 0 0 0 0 0 0 0 0 0 -12 -27 -37 -37 -28 -23 -28 -25 -14 -11 -13 -25 -44 -44 -43 -54 -49 -45 -5 -44 -21 -17 -24 -18 0 -5 0 0 0
0 -1 0 -3 -2 0 0 0 0 0 0 0 -1 -11 -37 -10 -14 -11 -31 -45 -52 -22 -29 -26 -25 -31 -41 -42 -51 -47 -53 -61 -52 -14 -59 -85 -31 -22 -4 0 -1 0 -2
0 0 -1 0 0 0 0 -2 0 0 0 0 0 -5 -10 -1 -2 -10 -22 -41 -40 -37 -33 -36 -35 -33 -39 -14 -27 -42 -40 -44 -6 -41 -17 -83 -57 -22 -11 0 -2 0 0
0 0 0 -1 -1 0 -1 0 0 0 0 0 0 0 -1 0 -5 -1 -20 -6 -47 -54 -18 -28 -18 -25 -38 -7 -9 -12 -11 -7 -22 -17 -69 -97 -67 -29 -12 0 0 -1 0
0 -1 -2 0 0 -1 0 0 0 0 0 0 0 0 0 0 -1 -2 -18 -13 -8 -12 -2 -3 -33 -1 -2 -5 -7 -4 -3 0 -1 -27 -63 -59 -72 -34 -10 0 0 -1 0
0 -1 0 0 0 -1 -1 -1 -1 -1 0 -1 0 -1 0 -1 -7 -11 -33 -2 -16 -1 -33 -32 -12 -1 -1 -3 -5 -1 -1 -1 -8 -5 -53 -47 -60 -52 -23 -1 0 0 0
0 -1 0 0 0 0 0 0 -1 0 -1 -1 -1 -1 -2 -1 -7 -2 -1 -1 -18 0 -13 -7 -1 -1 -4 -3 -13 -38 -14 -6 -4 -2 -6 -37 -51 -52 -39 -22 -1 -3 -5
-15 -4 0 0 0 0 0 0 0 0 0 0 0 0 0 0 0 -8 -2 0 -3 -33 -3 -2 0 -8 -16 -8 -9 -4 -2 -3 -3 -25 -24 -72 -15 -48 -31 -40 -9 0 -3
-21 -14 -2 0 -1 0 0 0 0 0 -1 -8 -6 -13 -6 -2 0 0 0 0 -9 -1 -26 -10 -3 -19 -1 -14 -80 -97 -89 -130 -195 -217 -183 -110 -100 -110 -32 -29 -15 -12 -10
-27 -18 -9 -1 -1 0 0 0 0 -1 0 0 -26 0 -2 -1 0 0 -6 -3 -4 -1 -1 -11 -13 -2 -29 0 0 0 -1 -63 -168 -129 -89 -26 -33 -70 -98 -36 -24 -17 -21
-31 -21 -1 -3 0 0 0 0 0 -1 -1 -1 0 -1 -12 -1 0 0 -13 -1 0 -1 -3 -20 -2 -17 0 -35 0 0 0 -174 -158 -105 -40 -63 -1 -1 -1 -1 -5 -12 -22
-21 -21 -8 0 0 0 0 0 0 0 0 0 -3 -19 -1 -3 0 0 -11 -47 0 -1 -12 -1 -1 -18 0 -57 -222 -1 0 -148 -128 -109 -65 -100 -52 -36 -4 -1 -11 -19 -12
-20 -11 0 0 0 0 0 0 0 0 -1 -1 -1 -1 0 -1 -1 0 0 -2 -20 -28 -4 -8 -51 -46 0 -34 0 0 -65 -88 -82 -73 -102 -37 0 -121 -80 -9 -2 -27 -1
-11 -6 0 0 0 0 0 0 0 -1 -3 0 -3 -4 -1 0 -1 0 0 0 -1 -5 -11 -12 -103 -99 0 0 -35 0 -42 -63 -44 -35 -19 -44 0 -1 -1 -102 -98 -43 -107
-9 -4 0 0 0 0 0 -1 0 0 0 -1 0 0 -1 -7 -9 0 0 0 0 -1 -14 -109 -23 -173 -77 0 0 -85 -62 -42 -50 -89 -107 -1 0 0 0 0 0 0 0
-23 -10 0 0 0 0 0 -1 0 0 0 0 0 -1 -4 0 -21 -30 -21 0 -1 -17 -16 -118 -138 -114 0 -10 0 0 -80 -1 -58 0 -1 -94 0 -2 0 0 0 0 0
-50 -34 -7 0 0 0 0 0 0 0 -1 -1 0 -1 -13 -45 -36 -28 -26 -7 0 -36 -74 -59 -63 -136 -83 -38 -60 -12 -1 0 0 0 0 -172 0 -3 0 0 0 0 0
Wind_Speed
11 12 16 19 18 17 16 15 13 12 12 12 13 14 14 12 14 14 12 13 13 13 12 13 13 12 12 12 11 9 8 9 8 8 9 10 9 7 5 5 5 9 11
11 16 17 16 16 15 15 13 11 10 12 11 12 13 13 12 13 12 12 11 12 12 12 12 11 11 12 11 10 8 7 7 5 4 7 10 10 7 7 8 8 13 11
16 17 15 14 14 14 10 10 11 10 13 11 12 12 11 12 12 11 10 11 11 11 11 11 10 10 10 10 9 8 7 5 1 6 6 7 12 7 7 10 11 11 10
16 16 16 11 13 12 11 12 13 12 12 11 11 10 10 11 10 10 10 10 10 10 10 10 10 9 8 8 8 7 6 3 3 6 9 6 13 9 10 9 9 8 10
14 15 15 11 11 12 12 13 13 12 12 11 10 9 9 9 9 9 9 9 9 9 9 9 8 7 7 6 5 5 4 2 2 7 7 4 10 10 10 11 10 8 6
13 13 14 11 13 13 13 13 13 12 11 11 9 9 8 8 8 8 7 7 7 7 7 7 7 6 5 4 3 3 2 1 3 5 1 6 12 11 8 9 11 10 10
16 16 15 13 13 13 12 13 13 12 11 10 8 7 7 6 7 6 6 6 6 5 6 6 6 6 5 4 3 2 2 6 6 7 6 2 10 10 9 8 9 9 8
17 18 15 14 14 13 13 13 12 11 10 8 7 6 5 5 5 4 4 4 4 4 5 6 5 5 5 5 3 3 4 8 6 2 6 8 12 10 11 9 8 8 8
16 17 14 14 13 13 12 11 9 9 8 7 6 5 5 5 4 3 2 2 3 4 4 5 5 4 3 3 3 2 4 8 8 4 7 8 11 10 9 10 9 8 10
13 11 12 12 12 12 11 10 9 8 7 7 7 6 5 6 7 7 5 3 2 4 5 4 4 3 3 4 3 7 7 9 6 5 5 8 12 10 9 8 10 10 9
13 14 16 11 13 11 12 10 9 8 8 7 8 7 9 9 10 11 7 5 2 4 5 5 6 8 9 7 10 10 11 6 7 6 6 14 12 10 9 9 8 9 9
14 7 11 16 14 12 11 11 10 9 10 9 8 9 8 2 4 7 1 6 7 8 7 9 10 10 11 3 8 10 4 9 0 8 7 14 12 11 9 11 10 9 9
17 14 19 13 12 12 9 8 6 7 7 6 4 4 7 3 5 7 6 3 4 10 4 7 3 4 8 5 2 2 5 6 2 5 12 16 11 10 11 11 11 11 11
15 14 14 12 11 10 7 7 8 6 6 5 9 6 5 5 4 3 1 2 1 2 1 3 4 2 6 4 4 7 2 6 4 4 8 10 15 10 11 11 13 12 13
15 14 13 13 11 9 6 7 7 6 6 7 5 9 7 6 2 3 3 5 3 3 3 7 4 3 4 4 6 7 8 2 5 3 5 16 13 14 11 12 12 14 14
15 15 14 14 13 12 9 6 5 5 5 5 5 5 7 7 1 1 4 6 5 4 2 5 6 6 5 3 4 4 6 7 5 4 2 6 14 15 16 14 14 13 13
15 15 14 14 13 12 11 10 8 7 8 7 7 6 5 6 4 2 6 7 5 3 3 3 5 4 5 6 5 5 6 8 6 5 6 8 8 14 14 14 14 12 12
15 15 14 13 15 14 11 9 8 8 7 6 4 3 7 7 7 6 6 6 4 5 5 5 4 4 5 8 6 5 5 6 6 5 8 4 6 5 11 14 13 12 13
15 15 15 14 14 15 12 9 10 7 7 7 2 5 5 6 7 7 7 5 1 4 5 2 4 4 6 6 7 4 2 5 5 4 2 2 2 4 5 12 12 12 13
16 14 14 13 12 10 9 8 8 6 4 8 8 7 2 5 6 6 4 4 3 4 4 3 3 6 6 3 7 6 4 4 3 2 5 4 8 5 5 2 7 10 12
16 16 16 14 12 9 10 10 10 10 9 8 8 3 5 6 7 7 6 8 6 4 3 2 5 7 4 5 7 3 2 6 4 3 2 5 5 2 5 6 3 6 2
18 18 16 15 12 11 10 9 7 6 9 11 10 7 9 5 11 7 6 3 5 6 3 2 2 5 5 5 6 7 3 6 5 4 4 3 5 2 4 5 7 7 4
20 19 17 15 15 13 13 8 6 7 5 5 5 7 8 10 6 6 6 6 4 3 4 2 1 1 5 1 2 5 4 4 1 4 6 6 4 4 3 6 4 4 4
21 20 17 17 16 15 14 12 11 10 9 9 8 4 2 4 6 9 5 5 3 3 5 1 2 4 2 4 1 4 4 5 6 3 4 6 6 4 3 1 5 4 2
22 21 19 18 17 16 16 15 10 12 9 7 5 6 2 5 6 6 6 5 4 5 6 1 1 1 1 5 2 3 3 3 2 5 5 5 1 5 4 4 4 2 5
21 21 20 19 16 18 16 17 14 11 11 8 8 6 5 7 8 7 8 6 5 3 2 3 2 2 3 5 6 2 3 3 3 4 5 4 5 4 3 3 4 2 3
Wind_Direction
125 131 136 129 125 117 113 112 111 104 97 102 98 96 91 89 88 88 87 85 85 81 80 75 70 65 60 58 61 72 78 87 87 97 114 111 96 86 69 31 324 115 106
124 129 130 126 122 120 117 123 119 108 109 105 103 99 95 98 92 93 89 90 87 83 78 72 67 63 60 57 62 74 80 80 93 140 135 117 103 79 72 50 50 94 108
134 126 134 124 126 115 117 131 133 128 121 112 110 105 105 100 97 94 91 86 84 80 74 70 64 60 59 57 60 72 75 85 112 257 209 221 95 79 88 84 93 105 114
139 136 133 132 127 121 124 123 131 136 131 127 114 116 108 100 97 91 87 84 80 75 68 63 59 56 55 57 59 64 64 67 239 301 289 113 93 89 108 107 108 109 116
125 117 118 141 136 132 133 131 135 136 135 128 125 118 107 100 97 93 89 85 80 74 62 54 50 49 48 44 50 65 65 39 240 279 312 14 94 109 115 130 134 130 161
134 139 130 144 143 145 142 136 136 141 139 135 129 117 112 110 105 97 94 86 81 70 57 43 33 29 37 27 25 32 26 276 242 239 37 103 73 117 126 106 100 108 117
137 128 135 144 144 140 137 140 143 143 141 138 128 124 124 114 104 100 90 76 67 52 38 23 9 5 9 8 348 359 291 271 234 192 145 95 108 127 126 123 121 117 125
144 133 138 138 142 143 141 140 138 139 137 136 137 141 135 116 108 109 91 71 46 22 10 11 10 13 13 6 2 344 300 277 252 136 149 105 126 137 138 132 128 134 140
135 118 134 135 138 147 143 138 139 142 145 146 155 160 150 148 157 161 113 50 3 1 359 11 9 11 3 347 353 325 254 268 283 173 147 135 143 151 150 148 158 141 145
119 137 156 142 150 156 152 153 156 160 163 172 175 174 184 202 198 206 191 162 335 330 323 322 328 296 258 228 239 256 258 263 245 77 83 107 145 162 163 159 155 162 153
145 170 145 158 150 158 159 156 169 171 179 184 189 196 221 232 194 173 116 117 255 284 269 267 259 250 242 231 228 227 247 228 214 180 133 140 153 171 176 175 178 174 169
144 161 155 175 155 168 165 143 182 173 189 199 192 170 231 357 4 329 175 189 229 236 232 241 234 242 245 216 228 228 228 263 162 117 124 144 158 181 187 181 187 194 194
154 193 167 157 159 185 128 163 184 177 199 189 215 237 239 337 210 212 195 160 202 240 195 218 237 238 272 347 355 55 3 330 209 25 136 146 161 189 199 197 195 199 200
172 194 157 159 166 204 154 193 191 192 203 214 180 202 266 222 216 295 2 128 154 243 287 302 151 305 356 275 340 321 82 328 295 224 119 146 158 191 209 212 204 205 204
180 187 170 165 174 200 231 190 243 224 182 211 179 176 258 265 123 204 70 295 355 314 61 264 41 347 327 17 318 341 327 266 275 296 139 186 166 175 205 218 217 214 210
183 185 177 179 177 199 207 244 234 252 244 227 239 203 190 277 191 146 269 249 246 283 49 339 17 313 317 266 232 164 303 329 336 343 355 167 186 174 187 204 219 226 221
185 180 187 190 184 194 207 200 220 229 222 240 218 198 218 222 268 325 279 298 301 118 241 278 263 249 252 234 187 205 242 210 250 329 303 301 177 191 192 198 202 216 222
192 190 194 194 186 189 205 204 224 223 234 232 212 132 178 215 245 246 256 273 304 301 133 240 295 279 311 344 307 285 315 319 301 297 249 296 315 283 191 199 201 208 218
196 188 194 203 202 186 199 211 215 227 237 266 67 215 210 232 238 244 225 244 53 279 280 29 274 335 345 311 299 274 324 265 279 350 337 247 242 240 278 167 192 203 219
189 196 200 199 210 187 197 213 212 225 245 262 246 218 314 222 246 245 259 237 254 296 290 6 341 345 301 281 319 337 276 321 339 240 85 274 83 338 1 22 199 199 195
193 190 193 202 186 195 200 199 213 204 182 220 251 180 199 231 254 260 260 164 202 257 145 251 342 304 312 33 285 261 171 193 202 329 87 13 67 40 65 349 355 41 52
192 185 191 196 189 200 195 222 222 218 210 205 207 210 203 223 214 227 254 298 185 152 157 88 6 309 292 87 320 288 236 172 197 119 43 356 11 11 104 80 49 14 64
195 194 188 193 192 193 229 199 201 266 264 262 229 229 214 207 216 216 230 257 145 286 124 113 87 249 320 313 54 318 294 71 241 127 157 73 317 20 3 123 64 61 27
199 193 195 191 196 197 205 230 200 207 221 215 223 223 136 180 225 183 201 198 209 280 53 155 150 318 303 324 294 156 355 2 326 114 165 146 182 167 359 82 132 106 32
203 198 195 194 195 204 196 224 207 222 218 237 218 130 180 151 219 195 189 188 182 242 108 360 170 225 274 305 338 6 74 242 125 316 317 137 194 157 169 242 9 319 148
206 205 198 189 196 198 201 198 229 210 229 239 203 171 199 196 180 205 190 189 173 232 177 205 154 191 316 342 329 342 295 328 335 321 297 306 331 280 173 275 198 243 291